Regional Weather Roundup
Issued by NWS Goodland, KS

Home | Current Version | Previous Version | Graphics & Text | Print | Product List | Glossary On
Versions: 1 2 3 4 5 6 7 8 9 10 11 12 13 14 15 16 17 18 19 20 21 22 23 24 25 26 27 28 29 30 31 32 33 34 35 36 37 38 39 40 41 42 43 44 45 46 47 48 49 50
000
ASUS43 KGLD 222308
RWRGLD

GOODLAND FORECAST AREA HOURLY WEATHER ROUNDUP
NATIONAL WEATHER SERVICE GOODLAND KS
500 PM MDT MON SEP 22 2014

...OFFICIAL OBSERVATIONS...

CITY           SKY/WX    TMP DP  RH WIND       PRES   REMARKS
GOODLAND KS    LGT RAIN  71  54  54 S25G37    30.08F
HILL CITY KS   PTSUNNY   77  44  30 SE13      30.14F
IMPERIAL NEB   CLOUDY    73  50  44 SE17G28   30.08F
MCCOOK NEB     CLOUDY    75  46  35 SE16G25   30.10F
AKRON CO       TSTM      62  60  93 NE15G28   30.07R FOG
BURLINGTON CO  CLOUDY    75  54  47 S22G31    30.09F
LIMON CO       MOSUNNY   78  50  37 S16G23    30.10F
$$

...UNOFFICIAL OBSERVATIONS...

CITY           SKY/WX    TMP DP  RH WIND       PRES   REMARKS
COLBY KS       SUNNY     75  52  43 SE20G25   30.13S
GOVE KS          N/A     77  32  19 MISG        N/A
NORTON KS      MOSUNNY   73  37  27 SE12      30.13S
SHARON SPRINGS   N/A     71  58  64 S14         N/A
WAKEENEY KS      N/A     78  40  26 MISG        N/A
TRENTON NEB      N/A     71  32  23 SE16        N/A
KIT CARSON CO    N/A     76  58  52 N20G31      N/A
YUMA CO          N/A     73  55  53 SE12G20     N/A
$$


USA.gov is the U.S. government's official web portal to all federal, state and local government web resources and services.